[[{"header":{"parameterUnit":"m.s-1","parameterCategory":1,"la1":30.2991,"la2":30.254,"lo1":-89.0895,"lo2":-89.0444,"dy":0.0017,"dx":0.0017,"nx":28,"ny":28,"refTime":"2023-08-10T21:00:00:Z","depth":0,"parameterNumber":2,"parameterNumberName":"U-component_of_WINDS"},"data":[0,0,0,0,0,0,0,0,0,0,0,0,0,0,0,0,0,0,0,0,0,0,0,0,0,0,0,0,0,0,0,0,0,0,0,0,0,0,0,0,0,0,0,0,0,0,0,0,0,0,0,0,0,0,0,0,0,0,4.2677,4.2678,0,4.2802,4.2803,4.2805,4.2754,4.2751,4.2748,4.2745,4.2876,4.2883,4.2889,0,0,0,0,0,0,0,0,0,0,0,0,0,4.2396,4.2401,4.2676,4.2678,4.268,4.2802,4.2803,4.2805,4.2754,4.275,4.2747,4.2743,4.2874,4.2882,4.2889,0,0,0,0,0,0,0,0,0,0,0,0,0,4.2519,4.2403,4.2676,4.2669,4.2669,4.2801,4.2803,4.2806,4.2755,4.275,4.2746,4.2742,4.2872,4.2881,4.289,4.3038,0,0,4.2919,4.2923,0,0,0,0,0,0,0,0,4.2512,4.253,4.2668,4.2669,4.267,4.2757,4.2753,4.2884,4.2756,4.2723,4.2745,4.274,4.2841,4.2852,4.2886,4.3044,4.305,4.292,4.2926,4.293,4.2932,0,0,0,0,0,0,0,4.2504,4.2524,4.2726,4.267,4.2672,4.266,4.2673,4.2777,4.2805,4.2725,4.2722,4.2737,4.284,4.2877,4.2889,4.3052,4.292,4.2928,4.2934,4.2938,4.3338,4.3343,0,0,0,0,0,0,4.2495,4.2517,4.2722,4.273,4.2579,4.2669,4.2683,4.2734,4.2804,4.281,4.2741,4.2734,4.2863,4.2878,4.2893,4.307,4.293,4.2939,4.2944,4.3333,4.3339,4.3345,0,0,0,0,0,0,4.2489,4.2514,4.2717,4.2623,4.2648,4.2678,4.2736,4.2739,4.2775,4.2816,4.2821,4.2773,4.286,4.288,4.3002,4.3074,4.2943,4.2951,4.3327,4.3335,4.3342,4.3426,0,0,0,0,0,0,4.2481,4.2512,4.2567,4.2624,4.2653,4.2823,4.2741,4.2745,4.2791,4.2784,4.2847,4.2853,4.2858,4.2988,4.3012,4.3085,4.2959,4.3321,4.3331,4.334,4.3417,4.3436,4.3452,0,0,0,0,0,4.2471,4.2587,4.257,4.2595,4.2723,4.2828,4.2844,4.2846,4.2797,4.2854,4.288,4.2851,4.3063,4.3001,4.3027,4.3104,4.3317,4.3328,4.3339,4.341,4.3432,4.3451,0,0,0,0,0,0,4.2538,4.2594,4.2576,4.2713,4.2766,4.2819,4.289,4.287,4.2939,4.2929,4.293,4.2945,4.3071,4.31,4.3031,4.3251,4.3182,4.3199,4.3227,4.3249,4.3266,4.3256,4.2967,0,0,0,0,0,4.2569,4.2648,4.2693,4.281,4.2837,4.2859,4.2905,4.2902,4.2957,4.2979,4.3014,4.307,4.3149,4.3201,4.3276,4.3422,4.3435,4.3488,4.3505,4.3519,4.3533,4.3613,4.3637,4.3382,4.3382,4.3381,0,0,4.2633,4.2673,4.2723,4.2824,4.2864,4.2947,4.2878,4.2969,4.3031,4.2993,4.3111,4.3139,4.3201,4.3336,4.3397,4.3364,4.3606,4.3533,4.3544,4.3551,4.3627,4.3651,4.3672,4.3389,4.3388,4.3387,0,0,4.2791,4.283,4.2931,4.2973,4.3035,4.3049,4.3074,4.313,4.3147,4.3264,4.3238,4.3313,4.3449,4.3494,4.3535,4.3712,4.3688,4.3737,4.3826,4.3904,4.3924,4.3942,4.4005,4.4027,4.3751,4.3751,4.3752,0,4.2863,4.2986,4.2986,4.3079,4.3124,4.3094,4.3197,4.3238,4.3322,4.3355,4.3316,4.3486,4.3526,4.3671,4.3714,4.3749,4.3777,4.3729,4.3921,4.3939,4.3955,4.4015,4.4039,4.3757,4.3756,4.3756,4.3755,0,4.3072,4.3158,4.3232,4.3313,4.3367,4.3465,4.348,4.3535,4.3529,4.3547,4.3668,4.3715,4.3798,4.3833,4.3828,4.3978,4.3955,4.3919,4.385,4.3985,4.4042,4.4065,4.3765,4.3763,4.3761,4.376,0,0,4.3275,4.3355,4.3382,4.3418,4.3485,4.3552,4.3649,4.373,4.3777,4.3837,4.3918,4.4034,4.4001,4.4048,4.4047,4.4116,4.4253,4.4071,4.4073,4.4103,4.4422,4.4448,4.4475,4.4238,4.4243,4.4246,4.4416,0,4.3439,4.3607,4.361,4.3765,4.3845,4.3818,4.3902,4.3953,4.3974,4.4045,4.4068,4.415,4.4101,4.4128,4.4195,4.4222,4.4317,4.421,4.4315,4.4318,4.4299,4.4504,4.4532,4.469,4.4439,4.4442,4.4445,0,4.3651,4.3716,4.3879,4.3934,4.3968,4.4044,4.4119,4.4187,4.4245,4.4255,4.4307,4.4297,4.4397,4.4326,4.4464,4.4391,4.4435,4.4455,4.4461,4.447,4.4389,4.4518,4.4741,4.4764,4.448,4.4477,4.4475,0,4.3783,4.3911,4.4025,4.4057,4.4125,4.4179,4.421,4.4263,4.4311,4.4377,4.4409,4.4487,4.4529,4.459,4.4601,4.4548,4.474,4.467,4.4752,4.4752,4.4793,4.479,4.5025,4.4822,4.4822,4.4821,4.4821,0,4.3964,4.4065,4.4085,4.4155,4.4267,4.4271,4.4382,4.4409,4.4457,4.4532,4.4514,4.4586,4.4597,4.4672,4.4682,4.4795,4.4814,4.4826,4.4827,4.4827,4.4825,4.4854,4.4843,4.4828,4.4826,4.4825,4.4824,0,4.4129,4.4147,4.4269,4.4323,4.4339,4.4419,4.4466,4.4534,4.4553,4.4649,4.4671,4.4702,4.4789,4.4806,4.491,4.4916,4.5051,4.5042,4.5031,4.503,4.5111,4.5103,4.5372,4.5407,4.5183,4.5185,4.5186,0,4.4244,4.432,4.4382,4.4431,4.4464,4.4543,4.4593,4.46,4.4652,4.4724,4.4783,4.4868,4.4936,4.5077,4.5109,4.5188,4.518,4.5269,4.5192,4.5189,4.5181,4.5176,4.5183,4.5284,4.5286,4.5288,4.529,0,4.4445,4.4449,4.4521,4.4596,4.4655,4.4715,4.4771,4.4813,4.4828,4.4888,4.4976,4.5029,4.5134,4.5219,4.5298,4.5331,4.5314,4.5314,4.5337,4.5337,4.5327,4.5333,4.507,4.5307,4.5306,4.5304,4.5303,4.5303,4.4587,4.4654,4.4708,4.4788,4.4832,4.4885,4.4951,4.4978,4.5052,4.5137,4.5137,4.5234,4.529,4.5395,4.5433,4.5509,4.5481,4.5515,4.5524,4.5532,4.5539,4.5316,4.5524,4.5524,4.5523,4.5523,4.5522,0,4.4787,4.482,4.4894,4.4973,4.5037,4.5014,4.5076,4.5131,4.5215,4.5269,4.5337,4.5438,4.5521,4.5559,4.5641,4.5695,4.5689,4.5716,4.5712,4.5719,4.5559,4.5531,4.5719,4.5719,4.5719,4.5719,4.5719,4.5719,4.4898,4.5009,4.5021,4.5154,4.5187,4.5281,4.5318,4.5368,4.541,4.5524,4.5592,4.5617,4.5665,4.575,4.5825,4.5834,4.5865,4.5896,4.5902,4.5751,4.5731,4.5712,4.5685,4.5903,4.5903,4.6055,4.6057,4.6058]},{"header":{"parameterUnit":"m.s-1","parameterCategory":1,"la1":30.2991,"la2":30.254,"lo1":-89.0895,"lo2":-89.0444,"dy":0.0017,"dx":0.0017,"nx":28,"ny":28,"refTime":"2023-08-10T21:00:00:Z","depth":0,"parameterNumber":3,"parameterNumberName":"V-component_of_WINDS"},"data":[0,0,0,0,0,0,0,0,0,0,0,0,0,0,0,0,0,0,0,0,0,0,0,0,0,0,0,0,0,0,0,0,0,0,0,0,0,0,0,0,0,0,0,0,0,0,0,0,0,0,0,0,0,0,0,0,0,0,-0.5025,-0.5025,0,-0.5072,-0.5073,-0.5073,-0.511,-0.511,-0.5111,-0.5111,-0.516,-0.516,-0.5161,0,0,0,0,0,0,0,0,0,0,0,0,0,-0.4966,-0.4967,-0.5025,-0.5025,-0.5026,-0.5072,-0.5073,-0.5073,-0.511,-0.511,-0.5111,-0.5111,-0.5159,-0.516,-0.5162,0,0,0,0,0,0,0,0,0,0,0,0,0,-0.5,-0.4967,-0.5024,-0.505,-0.5052,-0.5072,-0.5073,-0.5074,-0.511,-0.511,-0.5111,-0.5111,-0.5159,-0.516,-0.5162,-0.516,0,0,-0.5166,-0.5167,0,0,0,0,0,0,0,0,-0.4998,-0.5002,-0.5045,-0.5048,-0.5051,-0.5086,-0.507,-0.5103,-0.511,-0.5088,-0.5111,-0.5112,-0.5135,-0.5138,-0.5146,-0.5163,-0.5165,-0.5166,-0.5167,-0.5168,-0.5168,0,0,0,0,0,0,0,-0.4996,-0.5,-0.5043,-0.5046,-0.5049,-0.5059,-0.5064,-0.5076,-0.5108,-0.509,-0.5093,-0.5098,-0.5136,-0.5144,-0.5147,-0.5165,-0.5166,-0.5167,-0.5168,-0.5169,-0.5184,-0.5183,0,0,0,0,0,0,-0.4989,-0.4998,-0.5042,-0.5045,-0.5025,-0.5059,-0.5065,-0.5074,-0.5108,-0.5113,-0.5097,-0.5099,-0.5142,-0.5145,-0.5149,-0.515,-0.5168,-0.5169,-0.517,-0.5184,-0.5184,-0.5183,0,0,0,0,0,0,-0.4988,-0.4993,-0.504,-0.5022,-0.5029,-0.506,-0.5069,-0.5075,-0.5083,-0.5113,-0.5119,-0.51,-0.5142,-0.5147,-0.5157,-0.5152,-0.517,-0.5171,-0.5185,-0.5184,-0.5183,-0.5151,0,0,0,0,0,0,-0.4986,-0.4992,-0.4992,-0.5022,-0.503,-0.5047,-0.5069,-0.5075,-0.5085,-0.5088,-0.5117,-0.5122,-0.5143,-0.5155,-0.5159,-0.5154,-0.5172,-0.5185,-0.5185,-0.5184,-0.5152,-0.5149,-0.5146,0,0,0,0,0,-0.4984,-0.498,-0.4991,-0.4997,-0.503,-0.5047,-0.5051,-0.5075,-0.5085,-0.5085,-0.5104,-0.5122,-0.5152,-0.5156,-0.516,-0.5156,-0.5186,-0.5185,-0.5184,-0.5154,-0.515,-0.5146,0,0,0,0,0,0,-0.4949,-0.4985,-0.4997,-0.5004,-0.5022,-0.5053,-0.5054,-0.507,-0.5085,-0.5088,-0.5116,-0.5123,-0.513,-0.5144,-0.5148,-0.5157,-0.5171,-0.5171,-0.5147,-0.5143,-0.514,-0.5136,-0.5173,0,0,0,0,0,-0.4942,-0.4952,-0.4983,-0.4986,-0.4995,-0.5022,-0.5031,-0.5047,-0.5067,-0.5075,-0.5096,-0.5114,-0.5128,-0.5137,-0.5151,-0.5155,-0.5162,-0.5155,-0.5151,-0.5149,-0.5148,-0.5151,-0.5148,-0.518,-0.518,-0.518,0,0,-0.4927,-0.4948,-0.4953,-0.498,-0.4996,-0.5006,-0.5029,-0.5039,-0.5047,-0.5077,-0.5088,-0.5103,-0.5126,-0.5133,-0.5137,-0.5145,-0.5141,-0.5147,-0.5145,-0.5146,-0.515,-0.5147,-0.5144,-0.5179,-0.5179,-0.5179,0,0,-0.4906,-0.4923,-0.4927,-0.4943,-0.4967,-0.4986,-0.4987,-0.5016,-0.5027,-0.5039,-0.5062,-0.5072,-0.5095,-0.511,-0.5121,-0.5107,-0.5123,-0.5111,-0.5094,-0.5097,-0.5094,-0.5092,-0.5087,-0.5085,-0.511,-0.511,-0.511,0,-0.4885,-0.4902,-0.4927,-0.4936,-0.4947,-0.4975,-0.498,-0.4994,-0.5021,-0.5028,-0.5037,-0.5067,-0.5084,-0.5095,-0.5092,-0.51,-0.5102,-0.5107,-0.5093,-0.5091,-0.5089,-0.5084,-0.5082,-0.5108,-0.5109,-0.5109,-0.5109,0,-0.4874,-0.4886,-0.4886,-0.4912,-0.4923,-0.493,-0.4957,-0.4965,-0.4981,-0.4999,-0.501,-0.5032,-0.5052,-0.5056,-0.5072,-0.507,-0.5074,-0.5087,-0.5102,-0.5084,-0.508,-0.5078,-0.5106,-0.5106,-0.5107,-0.5107,0,0,-0.4831,-0.4872,-0.4872,-0.4884,-0.4913,-0.4922,-0.493,-0.495,-0.4956,-0.4974,-0.4982,-0.5001,-0.5014,-0.5026,-0.5044,-0.5047,-0.5034,-0.506,-0.5061,-0.5054,-0.5033,-0.5022,-0.502,-0.5045,-0.5045,-0.5045,-0.5031,0,-0.4815,-0.483,-0.4854,-0.4862,-0.4873,-0.49,-0.4907,-0.4926,-0.4943,-0.4955,-0.4974,-0.4987,-0.5003,-0.5011,-0.5015,-0.5035,-0.503,-0.5036,-0.5052,-0.5053,-0.5045,-0.5018,-0.5006,-0.4992,-0.503,-0.5029,-0.5029,0,-0.4797,-0.4814,-0.4822,-0.4851,-0.4857,-0.4862,-0.4882,-0.4893,-0.4915,-0.4927,-0.4941,-0.4961,-0.4971,-0.4985,-0.5,-0.5003,-0.5012,-0.5023,-0.5023,-0.5025,-0.5039,-0.5018,-0.4988,-0.4985,-0.5027,-0.5027,-0.5027,0,-0.4764,-0.4789,-0.4798,-0.4808,-0.4841,-0.4845,-0.4859,-0.4881,-0.4891,-0.4909,-0.4916,-0.4934,-0.4944,-0.4958,-0.4982,-0.499,-0.4994,-0.501,-0.5004,-0.5004,-0.5003,-0.5003,-0.4973,-0.5009,-0.501,-0.501,-0.501,0,-0.4742,-0.4747,-0.4784,-0.4789,-0.4795,-0.4822,-0.4827,-0.4844,-0.4864,-0.4873,-0.4898,-0.4906,-0.4938,-0.495,-0.4969,-0.4978,-0.4982,-0.4993,-0.4998,-0.499,-0.4989,-0.4995,-0.4997,-0.5009,-0.5009,-0.5009,-0.5009,0,-0.4706,-0.4731,-0.4743,-0.4774,-0.4782,-0.4784,-0.4811,-0.4818,-0.4837,-0.4848,-0.4852,-0.4882,-0.4897,-0.4923,-0.4946,-0.4958,-0.4964,-0.4972,-0.4956,-0.4959,-0.4952,-0.4952,-0.4925,-0.4923,-0.4961,-0.496,-0.496,0,-0.469,-0.4694,-0.4726,-0.4734,-0.4747,-0.476,-0.477,-0.4798,-0.4808,-0.4834,-0.4837,-0.4854,-0.487,-0.4893,-0.4917,-0.4934,-0.4943,-0.4933,-0.4946,-0.4939,-0.4943,-0.4942,-0.4943,-0.4929,-0.4929,-0.4928,-0.4928,0,-0.4659,-0.4672,-0.4686,-0.4705,-0.4717,-0.4733,-0.475,-0.4755,-0.4787,-0.4797,-0.4813,-0.4825,-0.4849,-0.4865,-0.4887,-0.4902,-0.492,-0.4924,-0.4923,-0.4915,-0.4906,-0.491,-0.4947,-0.4924,-0.4924,-0.4925,-0.4925,-0.4925,-0.4633,-0.4638,-0.4661,-0.4676,-0.4692,-0.4708,-0.4715,-0.4735,-0.4749,-0.477,-0.4786,-0.4801,-0.4824,-0.4854,-0.4868,-0.488,-0.4889,-0.4888,-0.4888,-0.4887,-0.4884,-0.4904,-0.4885,-0.4885,-0.4885,-0.4885,-0.4885,0,-0.4603,-0.4619,-0.4633,-0.4657,-0.4669,-0.4685,-0.4706,-0.4714,-0.4727,-0.4747,-0.4761,-0.478,-0.4797,-0.4822,-0.4841,-0.4846,-0.4855,-0.485,-0.4849,-0.4853,-0.4876,-0.4874,-0.4842,-0.4842,-0.4842,-0.4842,-0.4842,-0.4842,-0.4589,-0.4598,-0.4613,-0.463,-0.4647,-0.4662,-0.4672,-0.4687,-0.4702,-0.4722,-0.4736,-0.4752,-0.4774,-0.4795,-0.4811,-0.4819,-0.4824,-0.4816,-0.4826,-0.4847,-0.4851,-0.4855,-0.4853,-0.4817,-0.4817,-0.4802,-0.4802,-0.4801]}]]